FALCON 9 DEB (53642 NORAD) Tracking and Keplerian Element Data

This shows tracking and keplerian element data for the satellite.

Feedback or suggestion? Click here.




ElementValue
Catalog53642
NameFALCON 9 DEB
Epoch Orbit117
Epoch Day247.40262768
Epoch Year2022
RAAN251.8197
Inclination53.2192
Eccentricity0.0068247
Argument of Perigee70.0988
Mean Anonmoly290.7381
Mean Motion16.02195448
Decay Rate0.00676005
L11 53642U 22104BG 22247.40262768 .00676005 22444-3 85107-3 0 9998
L22 53642 53.2192 251.8197 0068247 70.0988 290.7381 16.02195448 1175



Live tracking and technical data element details for FALCON 9 DEB (NORAD 53642). FALCON 9 DEB can be tracked NOW for your location showing map with azimuth and elevation plus other details from your city location.







IsCatalogInMostPopularTable: catalog: 53642, numindb: 2
Update: records affected: 1



GetName: 53642 FALCON 9 DEB

Hit Count: updated at: Thu, 08 Dec 2022 19:04:51 GMT